N212KH KISP-KMVY

Flight info

Callsign N212KH
Flight time 0h 46m
Altitude 15000
Route ORCHA SEY V268 MINNK V374 MVY
Aircraft TBM9/L-SDFGRWY/S

Departure

Time 2026-04-22 20:27
Airport Long Island MacArthur Airport (KISP)

Arrival

Time 2026-04-22 21:13
Airport Martha's Vineyard Airport (KMVY)
Time Latitude Longitude Altitude Speed Heading
2026-04-22 20:04 40.78874 -73.10897 95 ft 0 kts 312°
2026-04-22 20:21 40.78876 -73.10898 114 ft 1 kts 322°
2026-04-22 20:21 40.78878 -73.10900 114 ft 0 kts 345°
2026-04-22 20:21 40.78882 -73.10901 114 ft 3 kts 354°
2026-04-22 20:22 40.78920 -73.10851 95 ft 12 kts 47°
2026-04-22 20:22 40.78996 -73.10842 95 ft 13 kts 34°
2026-04-22 20:22 40.79080 -73.10761 95 ft 17 kts 46°
2026-04-22 20:22 40.79193 -73.10723 95 ft 18 kts 359°
2026-04-22 20:23 40.79325 -73.10723 96 ft 20 kts
2026-04-22 20:23 40.79470 -73.10723 96 ft 22 kts 357°
2026-04-22 20:23 40.79626 -73.10726 97 ft 23 kts
2026-04-22 20:23 40.79788 -73.10722 99 ft 24 kts 359°
2026-04-22 20:24 40.79951 -73.10721 101 ft 23 kts
2026-04-22 20:24 40.80104 -73.10725 101 ft 20 kts 356°
2026-04-22 20:24 40.80132 -73.10719 101 ft 0 kts 24°
2026-04-22 20:26 40.80144 -73.10712 100 ft 7 kts 27°
2026-04-22 20:26 40.80142 -73.10630 100 ft 16 kts 139°
2026-04-22 20:26 40.79940 -73.10368 99 ft 73 kts 134°
2026-04-22 20:27 40.79423 -73.09737 178 ft 123 kts 139°
2026-04-22 20:27 40.78750 -73.08961 683 ft 130 kts 143°
2026-04-22 20:27 40.78012 -73.08192 1381 ft 130 kts 146°
2026-04-22 20:27 40.77349 -73.07504 2253 ft 119 kts 156°
2026-04-22 20:28 40.76529 -73.07162 2534 ft 132 kts 193°
2026-04-22 20:28 40.75555 -73.07290 2702 ft 150 kts 189°
2026-04-22 20:28 40.74501 -73.07115 2929 ft 162 kts 180°
2026-04-22 20:28 40.73399 -73.06517 2906 ft 180 kts 160°
2026-04-22 20:29 40.72442 -73.05403 2906 ft 188 kts 142°
2026-04-22 20:29 40.71776 -73.03887 2897 ft 195 kts 123°
2026-04-22 20:29 40.71493 -73.02117 2894 ft 201 kts 104°
2026-04-22 20:29 40.71645 -73.00277 2914 ft 204 kts 85°
2026-04-22 20:30 40.72230 -72.98557 2972 ft 208 kts 67°
2026-04-22 20:30 40.73197 -72.97129 3065 ft 210 kts 50°
2026-04-22 20:30 40.74320 -72.95936 3306 ft 205 kts 50°
2026-04-22 20:30 40.75319 -72.94596 3536 ft 205 kts 60°
2026-04-22 20:31 40.76120 -72.93070 3725 ft 206 kts 70°
2026-04-22 20:31 40.76758 -72.91372 3928 ft 206 kts 79°
2026-04-22 20:31 40.77157 -72.89557 4112 ft 207 kts 88°
2026-04-22 20:31 40.77581 -72.87716 4242 ft 211 kts 79°
2026-04-22 20:32 40.78082 -72.85910 4504 ft 208 kts 85°
2026-04-22 20:32 40.78464 -72.84048 4560 ft 214 kts 81°
2026-04-22 20:32 40.78981 -72.82223 4744 ft 210 kts 80°
2026-04-22 20:32 40.79377 -72.80373 4889 ft 212 kts 85°
2026-04-22 20:33 40.79827 -72.78508 5055 ft 210 kts 86°
2026-04-22 20:33 40.79944 -72.76599 5114 ft 216 kts 91°
2026-04-22 20:33 40.80379 -72.74696 5212 ft 217 kts 73°
2026-04-22 20:33 40.81072 -72.72951 5417 ft 213 kts 71°
2026-04-22 20:34 40.81697 -72.71181 5588 ft 213 kts 78°
2026-04-22 20:34 40.82103 -72.69318 5700 ft 216 kts 85°
2026-04-22 20:34 40.82531 -72.67405 5780 ft 217 kts 78°
2026-04-22 20:34 40.83054 -72.65543 5967 ft 215 kts 80°
2026-04-22 20:35 40.83447 -72.63625 6040 ft 219 kts 81°
2026-04-22 20:35 40.83960 -72.61732 6188 ft 217 kts 77°
2026-04-22 20:35 40.84393 -72.59831 6348 ft 218 kts 83°
2026-04-22 20:35 40.84862 -72.57908 6450 ft 219 kts 77°
2026-04-22 20:36 40.85348 -72.56006 6660 ft 218 kts 82°
2026-04-22 20:36 40.85772 -72.54067 6729 ft 221 kts 77°
2026-04-22 20:36 40.86288 -72.52165 6929 ft 219 kts 81°
2026-04-22 20:36 40.86693 -72.50208 6940 ft 224 kts 79°
2026-04-22 20:37 40.87208 -72.48242 6964 ft 229 kts 78°
2026-04-22 20:37 40.87662 -72.46211 6966 ft 233 kts 83°
2026-04-22 20:37 40.88134 -72.44149 6952 ft 234 kts 79°
2026-04-22 20:37 40.88591 -72.42082 6961 ft 235 kts 83°
2026-04-22 20:38 40.89058 -72.40008 6943 ft 235 kts 79°
2026-04-22 20:38 40.89622 -72.37972 6969 ft 237 kts 71°
2026-04-22 20:38 40.90138 -72.35920 7043 ft 236 kts 90°
2026-04-22 20:38 40.90162 -72.33749 6999 ft 237 kts 104°
2026-04-22 20:39 40.89919 -72.31591 6955 ft 238 kts 110°
2026-04-22 20:39 40.89424 -72.29557 6882 ft 232 kts 151°
2026-04-22 20:39 40.88246 -72.30059 7441 ft 184 kts 214°
2026-04-22 20:39 40.86984 -72.30507 7625 ft 207 kts 167°
2026-04-22 20:40 40.85727 -72.29480 7684 ft 230 kts 125°
2026-04-22 20:40 40.85245 -72.27426 7569 ft 248 kts 86°
2026-04-22 20:40 40.85694 -72.25236 7476 ft 253 kts 55°
2026-04-22 20:40 40.86719 -72.23315 7389 ft 253 kts 45°
2026-04-22 20:41 40.88048 -72.21858 7291 ft 249 kts 28°
2026-04-22 20:41 40.89559 -72.20818 7024 ft 245 kts 17°
2026-04-22 20:41 40.91136 -72.20224 7127 ft 227 kts
2026-04-22 20:41 40.92707 -72.19874 6956 ft 230 kts
2026-04-22 20:42 40.93779 -72.19679 6572 ft 240 kts
2026-04-22 20:42 40.95287 -72.18993 6779 ft 232 kts 31°
2026-04-22 20:42 40.96313 -72.17375 6912 ft 230 kts 64°
2026-04-22 20:42 40.96761 -72.15365 7036 ft 228 kts 85°
2026-04-22 20:43 40.96793 -72.13271 7029 ft 229 kts 99°
2026-04-22 20:43 40.96809 -72.11155 6983 ft 231 kts 86°
2026-04-22 20:43 40.96820 -72.09048 7010 ft 230 kts 96°
2026-04-22 20:43 40.96870 -72.06931 6978 ft 231 kts 87°
2026-04-22 20:44 40.97334 -72.04921 6936 ft 228 kts 65°
2026-04-22 20:44 40.98306 -72.03303 6949 ft 224 kts 43°
2026-04-22 20:44 40.99429 -72.01889 7033 ft 223 kts 47°
2026-04-22 20:44 41.00338 -72.00202 7025 ft 227 kts 54°
2026-04-22 20:45 41.01258 -71.98490 7027 ft 229 kts 56°
2026-04-22 20:45 41.02124 -71.96706 7024 ft 231 kts 59°
2026-04-22 20:45 41.02971 -71.94891 7028 ft 231 kts 59°
2026-04-22 20:45 41.03747 -71.93053 7025 ft 232 kts 62°
2026-04-22 20:46 41.05367 -71.89307 7037 ft 236 kts 69°
2026-04-22 20:46 41.05795 -71.87205 7038 ft 237 kts 74°
2026-04-22 20:46 41.06368 -71.85162 7040 ft 237 kts 63°
2026-04-22 20:47 41.07132 -71.83224 7039 ft 238 kts 60°
2026-04-22 20:47 41.07902 -71.81277 7039 ft 238 kts 62°
2026-04-22 20:47 41.08633 -71.79310 7039 ft 238 kts 63°
2026-04-22 20:47 41.09365 -71.77345 7036 ft 238 kts 62°
2026-04-22 20:48 41.10093 -71.75400 7043 ft 238 kts 62°
2026-04-22 20:48 41.10829 -71.73433 7050 ft 238 kts 62°
2026-04-22 20:48 41.11568 -71.71464 7049 ft 238 kts 62°
2026-04-22 20:48 41.12302 -71.69495 7049 ft 238 kts 63°
2026-04-22 20:49 41.13039 -71.67523 7043 ft 238 kts 62°
2026-04-22 20:49 41.13772 -71.65558 7047 ft 238 kts 63°
2026-04-22 20:49 41.14504 -71.63591 7049 ft 238 kts 63°
2026-04-22 20:49 41.15240 -71.61620 7046 ft 238 kts 63°
2026-04-22 20:50 41.15973 -71.59649 7050 ft 238 kts 63°
2026-04-22 20:50 41.16869 -71.57826 7036 ft 236 kts 45°
2026-04-22 20:50 41.18140 -71.56488 7031 ft 232 kts 28°
2026-04-22 20:50 41.19539 -71.55420 7035 ft 232 kts 27°
2026-04-22 20:51 41.20925 -71.54327 7038 ft 231 kts 27°
2026-04-22 20:51 41.22309 -71.53242 7039 ft 231 kts 27°
2026-04-22 20:51 41.23695 -71.52162 7037 ft 231 kts 27°
2026-04-22 20:51 41.25076 -71.51080 7038 ft 230 kts 27°
2026-04-22 20:52 41.26457 -71.49997 7040 ft 230 kts 27°
2026-04-22 20:52 41.27822 -71.48927 7039 ft 231 kts 27°
2026-04-22 20:52 41.29206 -71.47843 7037 ft 231 kts 27°
2026-04-22 20:52 41.30595 -71.46756 7037 ft 231 kts 27°
2026-04-22 20:53 41.31980 -71.45667 7038 ft 231 kts 27°
2026-04-22 20:53 41.33363 -71.44578 7038 ft 231 kts 27°
2026-04-22 20:53 41.34687 -71.43361 7040 ft 233 kts 41°
2026-04-22 20:53 41.35675 -71.41638 7052 ft 237 kts 60°
2026-04-22 20:54 41.36219 -71.39573 7047 ft 239 kts 79°
2026-04-22 20:54 41.36351 -71.37370 7039 ft 239 kts 87°
2026-04-22 20:54 41.36452 -71.35162 7035 ft 239 kts 86°
2026-04-22 20:54 41.36558 -71.32957 7036 ft 239 kts 87°
2026-04-22 20:55 41.36659 -71.30752 7038 ft 239 kts 87°
2026-04-22 20:55 41.36759 -71.28544 7040 ft 239 kts 87°
2026-04-22 20:55 41.36858 -71.26331 7038 ft 240 kts 87°
2026-04-22 20:55 41.36958 -71.24117 7042 ft 240 kts 87°
2026-04-22 20:56 41.37056 -71.21902 7043 ft 240 kts 87°
2026-04-22 20:56 41.37158 -71.19686 7041 ft 240 kts 87°
2026-04-22 20:56 41.37257 -71.17470 7043 ft 240 kts 87°
2026-04-22 20:56 41.37354 -71.15253 7038 ft 240 kts 87°
2026-04-22 20:57 41.37452 -71.13035 7045 ft 240 kts 87°
2026-04-22 20:57 41.37548 -71.10809 6938 ft 242 kts 87°
2026-04-22 20:57 41.37642 -71.08568 6771 ft 242 kts 88°
2026-04-22 20:57 41.37741 -71.06330 6600 ft 242 kts 88°
2026-04-22 20:58 41.37838 -71.04126 6427 ft 242 kts 88°
2026-04-22 20:58 41.37934 -71.01895 6240 ft 241 kts 88°
2026-04-22 20:58 41.38030 -70.99669 6059 ft 241 kts 88°
2026-04-22 20:58 41.38125 -70.97448 5878 ft 240 kts 89°
2026-04-22 20:59 41.38218 -70.95229 5699 ft 240 kts 89°
2026-04-22 20:59 41.38314 -70.93010 5509 ft 240 kts 89°
2026-04-22 20:59 41.38407 -70.90795 5330 ft 239 kts 90°
2026-04-22 20:59 41.38498 -70.88584 5156 ft 239 kts 90°
2026-04-22 21:00 41.38592 -70.86375 4973 ft 239 kts 90°
2026-04-22 21:00 41.38683 -70.84168 4757 ft 239 kts 91°
2026-04-22 21:00 41.38769 -70.81973 4517 ft 236 kts 91°
2026-04-22 21:00 41.38863 -70.79801 4281 ft 234 kts 91°
2026-04-22 21:01 41.38952 -70.77651 4036 ft 232 kts 91°
2026-04-22 21:01 41.39037 -70.75516 3806 ft 229 kts 91°
2026-04-22 21:01 41.39123 -70.73405 3578 ft 227 kts 91°
2026-04-22 21:01 41.39211 -70.71306 3344 ft 227 kts 92°
2026-04-22 21:02 41.39293 -70.69221 3108 ft 224 kts 91°
2026-04-22 21:02 41.39444 -70.67166 2858 ft 224 kts 79°
2026-04-22 21:02 41.40257 -70.65389 2597 ft 231 kts 46°
2026-04-22 21:02 41.41522 -70.64106 2354 ft 231 kts 37°
2026-04-22 21:03 41.42844 -70.62901 2120 ft 230 kts 37°
2026-04-22 21:03 41.44170 -70.61718 1988 ft 226 kts 37°
2026-04-22 21:03 41.45459 -70.60583 1987 ft 219 kts 36°
2026-04-22 21:03 41.46722 -70.59484 1980 ft 216 kts 36°
2026-04-22 21:04 41.47971 -70.58394 1977 ft 213 kts 36°
2026-04-22 21:04 41.49210 -70.57316 1983 ft 213 kts 36°
2026-04-22 21:04 41.50448 -70.56240 1981 ft 212 kts 36°
2026-04-22 21:04 41.51681 -70.55158 1979 ft 212 kts 36°
2026-04-22 21:05 41.52893 -70.54080 1986 ft 212 kts 36°
2026-04-22 21:05 41.54126 -70.52987 1988 ft 212 kts 37°
2026-04-22 21:05 41.55354 -70.51900 1985 ft 212 kts 36°
2026-04-22 21:05 41.56573 -70.50829 1992 ft 208 kts 36°
2026-04-22 21:06 41.57783 -70.49764 1989 ft 208 kts 36°
2026-04-22 21:06 41.58991 -70.48697 1991 ft 208 kts 36°
2026-04-22 21:06 41.60196 -70.47619 1989 ft 207 kts 39°
2026-04-22 21:06 41.61040 -70.46144 1997 ft 198 kts 77°
2026-04-22 21:07 41.60996 -70.44395 2005 ft 185 kts 119°
2026-04-22 21:07 41.60147 -70.43224 2006 ft 175 kts 160°
2026-04-22 21:07 41.58969 -70.43116 2005 ft 171 kts 190°
2026-04-22 21:07 41.57804 -70.43423 2009 ft 170 kts 191°
2026-04-22 21:08 41.56639 -70.43747 1998 ft 172 kts 192°
2026-04-22 21:08 41.55478 -70.44147 2003 ft 173 kts 200°
2026-04-22 21:08 41.54355 -70.44729 2003 ft 173 kts 200°
2026-04-22 21:08 41.53268 -70.45413 2006 ft 174 kts 212°
2026-04-22 21:09 41.52324 -70.46375 2006 ft 172 kts 216°
2026-04-22 21:09 41.51416 -70.47374 1996 ft 166 kts 217°
2026-04-22 21:09 41.50539 -70.48358 1990 ft 164 kts 218°
2026-04-22 21:09 41.49686 -70.49344 1984 ft 160 kts 218°
2026-04-22 21:10 41.48854 -70.50300 1982 ft 156 kts 218°
2026-04-22 21:10 41.48041 -70.51223 1981 ft 151 kts 217°
2026-04-22 21:10 41.47254 -70.52129 1975 ft 147 kts 217°
2026-04-22 21:10 41.46473 -70.53018 1887 ft 150 kts 216°
2026-04-22 21:11 41.45675 -70.53939 1684 ft 151 kts 217°
2026-04-22 21:11 41.44895 -70.54822 1474 ft 144 kts 217°
2026-04-22 21:11 41.44165 -70.55663 1276 ft 134 kts 217°
2026-04-22 21:11 41.43463 -70.56459 1086 ft 129 kts 217°
2026-04-22 21:12 41.42813 -70.57244 845 ft 126 kts 216°
2026-04-22 21:12 41.42208 -70.57914 701 ft 105 kts 214°
2026-04-22 21:12 41.41675 -70.58531 582 ft 100 kts 216°
2026-04-22 21:12 41.41154 -70.59126 469 ft 101 kts 213°
2026-04-22 21:13 41.40619 -70.59727 311 ft 101 kts 214°
2026-04-22 21:13 41.40077 -70.60332 158 ft 103 kts 213°
2026-04-22 21:13 41.39548 -70.60928 74 ft 95 kts 214°
2026-04-22 21:13 41.39148 -70.61381 58 ft 46 kts 221°
2026-04-22 21:14 41.38963 -70.61583 61 ft 30 kts 214°
2026-04-22 21:14 41.38844 -70.61692 58 ft 11 kts 150°
2026-04-22 21:14 41.38801 -70.61603 60 ft 13 kts 71°
2026-04-22 21:14 41.38854 -70.61515 60 ft 11 kts 104°
2026-04-22 21:15 41.38813 -70.61432 60 ft 10 kts 126°
2026-04-22 21:15 41.38805 -70.61419 57 ft 0 kts 134°